[[{"header":{"parameterUnit":"m.s-1","parameterCategory":2,"la1":30.2991,"la2":30.254,"lo1":-89.0895,"lo2":-89.0444,"dy":0.0017,"dx":0.0017,"nx":28,"ny":28,"refTime":"2023-08-11T03:00:00:Z","depth":"0","parameterNumber":2,"parameterNumberName":"U-component_of_CURRENTS"},"data":[0,0,0,0,0,0,0,0,0,0,0,0,0,0,0,0,0,0,0,0,0,0,0,0,0,0,0,0,0,0,0,0,0,0,0,0,0,0,0,0,0,0,0,0,0,0,0,0,0,0,0,0,0,0,0,0,0,0,-0.1321,-0.1321,0,-0.131,-0.131,-0.131,-0.1257,-0.1256,-0.1255,-0.1254,-0.1136,-0.1135,-0.1133,0,0,0,0,0,0,0,0,0,0,0,0,0,-0.134,-0.1339,-0.1322,-0.1321,-0.1321,-0.131,-0.131,-0.131,-0.1258,-0.1256,-0.1255,-0.1253,-0.1137,-0.1135,-0.1132,0,0,0,0,0,0,0,0,0,0,0,0,0,-0.133,-0.1339,-0.1322,-0.1294,-0.1291,-0.131,-0.131,-0.131,-0.1258,-0.1256,-0.1254,-0.1253,-0.1138,-0.1135,-0.1132,-0.1151,0,0,-0.1123,-0.1122,0,0,0,0,0,0,0,0,-0.1331,-0.133,-0.1298,-0.1296,-0.1293,-0.1283,-0.1273,-0.1251,-0.1258,-0.1271,-0.1254,-0.1252,-0.1177,-0.1171,-0.1174,-0.1145,-0.114,-0.1123,-0.1121,-0.112,-0.1119,0,0,0,0,0,0,0,-0.1331,-0.133,-0.1317,-0.1298,-0.1295,-0.1296,-0.1292,-0.127,-0.1232,-0.1269,-0.1266,-0.1265,-0.1175,-0.1178,-0.1171,-0.1139,-0.1123,-0.112,-0.1118,-0.1117,-0.1012,-0.1011,0,0,0,0,0,0,-0.1333,-0.1331,-0.1317,-0.1317,-0.1308,-0.1297,-0.1293,-0.1288,-0.1235,-0.1226,-0.1267,-0.1263,-0.1183,-0.1174,-0.1166,-0.1105,-0.112,-0.1117,-0.1115,-0.1013,-0.1012,-0.1011,0,0,0,0,0,0,-0.1333,-0.1332,-0.1318,-0.1324,-0.1322,-0.1299,-0.1294,-0.1289,-0.1282,-0.1234,-0.1222,-0.1263,-0.1182,-0.1171,-0.114,-0.1103,-0.1116,-0.1113,-0.1014,-0.1013,-0.1011,-0.1034,0,0,0,0,0,0,-0.1334,-0.1332,-0.1331,-0.1324,-0.1321,-0.1308,-0.1296,-0.129,-0.1285,-0.1279,-0.1227,-0.1215,-0.1179,-0.1144,-0.1137,-0.1099,-0.1111,-0.1016,-0.1014,-0.1012,-0.1034,-0.1033,-0.1032,0,0,0,0,0,-0.1334,-0.1331,-0.1331,-0.1329,-0.132,-0.1308,-0.1306,-0.1284,-0.1286,-0.1274,-0.1251,-0.1216,-0.1125,-0.1143,-0.1133,-0.1094,-0.1016,-0.1014,-0.1012,-0.1035,-0.1033,-0.1032,0,0,0,0,0,0,-0.1327,-0.1326,-0.1325,-0.1318,-0.1307,-0.1298,-0.1289,-0.129,-0.1269,-0.1259,-0.1225,-0.1211,-0.1164,-0.1135,-0.1155,-0.1055,-0.1056,-0.1052,-0.1076,-0.1075,-0.1073,-0.1013,-0.1108,0,0,0,0,0,-0.1332,-0.1329,-0.1325,-0.1315,-0.1313,-0.1309,-0.1305,-0.1291,-0.1274,-0.1263,-0.1228,-0.1186,-0.1152,-0.112,-0.1083,-0.1046,-0.1001,-0.1006,-0.1005,-0.1004,-0.0947,-0.0898,-0.0887,-0.1003,-0.1003,-0.1003,0,0,-0.1323,-0.1324,-0.132,-0.1315,-0.1307,-0.1285,-0.13,-0.1285,-0.1253,-0.1253,-0.1198,-0.1189,-0.1145,-0.1095,-0.1068,-0.1061,-0.0952,-0.1001,-0.1001,-0.0943,-0.0894,-0.0883,-0.0873,-0.1002,-0.1002,-0.1002,0,0,-0.129,-0.1308,-0.1287,-0.1283,-0.1272,-0.127,-0.1267,-0.1253,-0.1232,-0.1203,-0.1188,-0.1156,-0.1106,-0.1057,-0.1032,-0.1003,-0.0959,-0.0994,-0.0927,-0.0883,-0.0872,-0.0862,-0.0814,-0.08,-0.0982,-0.0982,-0.0983,0,-0.1274,-0.1253,-0.1276,-0.1252,-0.124,-0.1261,-0.1224,-0.1214,-0.1186,-0.1162,-0.1171,-0.1088,-0.1072,-0.0993,-0.0981,-0.0994,-0.0965,-0.0945,-0.0881,-0.087,-0.086,-0.0812,-0.0796,-0.0983,-0.0983,-0.0983,-0.0983,0,-0.1224,-0.1206,-0.1195,-0.1171,-0.1161,-0.1141,-0.1131,-0.1114,-0.111,-0.1091,-0.1024,-0.1006,-0.0944,-0.0947,-0.0955,-0.0867,-0.0871,-0.0902,-0.0888,-0.0849,-0.0802,-0.0785,-0.0984,-0.0984,-0.0984,-0.0984,0,0,-0.1191,-0.1161,-0.1157,-0.1131,-0.112,-0.1105,-0.1063,-0.1025,-0.0991,-0.0958,-0.0884,-0.0848,-0.0843,-0.081,-0.0815,-0.0769,-0.0708,-0.0798,-0.0796,-0.0753,-0.0601,-0.0445,-0.0411,-0.0742,-0.0738,-0.0736,-0.0607,0,-0.1138,-0.1078,-0.1077,-0.1017,-0.099,-0.0996,-0.0956,-0.0928,-0.0908,-0.0847,-0.081,-0.0753,-0.079,-0.0767,-0.0726,-0.0708,-0.0658,-0.0738,-0.0637,-0.0632,-0.0501,-0.0383,-0.0238,-0.0095,-0.059,-0.0587,-0.0585,0,-0.1093,-0.1061,-0.0991,-0.0944,-0.0932,-0.09,-0.0854,-0.0819,-0.0759,-0.0734,-0.0667,-0.0649,-0.0559,-0.0615,-0.0513,-0.0567,-0.0565,-0.0555,-0.0552,-0.0365,-0.0439,-0.0206,-0.0045,-0.0063,-0.0558,-0.056,-0.0562,0,-0.1072,-0.1005,-0.0949,-0.0935,-0.0884,-0.0851,-0.0828,-0.0783,-0.0738,-0.0656,-0.06,-0.0518,-0.0449,-0.0422,-0.0401,-0.046,-0.0287,-0.0381,-0.0227,-0.0219,-0.0041,-0.002,0.013,-0.0291,-0.0292,-0.0292,-0.0292,0,-0.103,-0.0981,-0.0936,-0.091,-0.0844,-0.0825,-0.0752,-0.0725,-0.0648,-0.0559,-0.0537,-0.0418,-0.0397,-0.031,-0.0329,-0.0176,-0.023,-0.014,-0.014,-0.0047,-0.0029,0.0006,-0.0163,-0.0287,-0.0288,-0.0289,-0.029,0,-0.0993,-0.0969,-0.0907,-0.0851,-0.0832,-0.0789,-0.0713,-0.0646,-0.0601,-0.0472,-0.0433,-0.0313,-0.0169,-0.0144,-0.0069,-0.004,0.0038,0.0083,0.0208,0.0225,0.0386,0.0207,0.0239,0.0245,0.0315,0.032,0.0324,0,-0.0954,-0.0921,-0.0871,-0.0829,-0.0795,-0.0733,-0.0671,-0.0624,-0.0547,-0.0386,-0.0295,-0.0127,0.0042,0.0246,0.0327,0.0411,0.0231,0.0582,0.0523,0.0506,0.0301,0.008,0.0063,0.0714,0.0721,0.0727,0.0732,0,-0.0871,-0.0868,-0.0817,-0.0752,-0.0687,-0.0612,-0.0527,-0.0463,-0.0373,-0.0268,-0.007,0.0077,0.0341,0.0577,0.0721,0.0764,0.0551,0.0712,0.0661,0.0652,0.0453,0.0422,0.0486,0.0785,0.0779,0.0776,0.0773,0.0771,-0.0803,-0.0759,-0.071,-0.0632,-0.0565,-0.0466,-0.0385,-0.0287,-0.0158,0.0043,0.013,0.0387,0.0729,0.1006,0.1031,0.1209,0.0913,0.1207,0.0996,0.0782,0.0796,0.1011,0.1324,0.1322,0.132,0.1318,0.1317,0,-0.0703,-0.0652,-0.0579,-0.0487,-0.0389,-0.0394,-0.0255,-0.015,0.0022,0.0213,0.0392,0.0809,0.1132,0.1327,0.1585,0.1523,0.1354,0.141,0.1118,0.1093,0.1326,0.1365,0.1744,0.1744,0.1744,0.1744,0.1744,0.1744,-0.0641,-0.0545,-0.0505,-0.0327,-0.0269,-0.0126,-0.0044,0.0097,0.0249,0.0561,0.0785,0.0948,0.1246,0.1516,0.1634,0.1587,0.1299,0.119,0.1021,0.1169,0.1132,0.1097,0.1108,0.1427,0.1426,0.0912,0.0907,0.0903]},{"header":{"parameterUnit":"m.s-1","parameterCategory":2,"la1":30.2991,"la2":30.254,"lo1":-89.0895,"lo2":-89.0444,"dy":0.0017,"dx":0.0017,"nx":28,"ny":28,"refTime":"2023-08-11T03:00:00:Z","depth":"0","parameterNumber":3,"parameterNumberName":"V-component_of_CURRENTS"},"data":[0,0,0,0,0,0,0,0,0,0,0,0,0,0,0,0,0,0,0,0,0,0,0,0,0,0,0,0,0,0,0,0,0,0,0,0,0,0,0,0,0,0,0,0,0,0,0,0,0,0,0,0,0,0,0,0,0,0,-0.0674,-0.0674,0,-0.066,-0.0659,-0.0659,-0.062,-0.0619,-0.0619,-0.0619,-0.0514,-0.0512,-0.0509,0,0,0,0,0,0,0,0,0,0,0,0,0,-0.0528,-0.0531,-0.0674,-0.0674,-0.0675,-0.066,-0.0659,-0.0659,-0.062,-0.0619,-0.0619,-0.0619,-0.0515,-0.0512,-0.0509,0,0,0,0,0,0,0,0,0,0,0,0,0,-0.0555,-0.0532,-0.0674,-0.0658,-0.0657,-0.066,-0.0659,-0.0658,-0.062,-0.0619,-0.0619,-0.0619,-0.0516,-0.0512,-0.0509,-0.0492,0,0,-0.0497,-0.0495,0,0,0,0,0,0,0,0,-0.0553,-0.0559,-0.066,-0.066,-0.0659,-0.0647,-0.057,-0.06,-0.062,-0.0627,-0.0619,-0.0618,-0.0555,-0.0548,-0.0538,-0.0487,-0.0482,-0.0496,-0.0494,-0.0492,-0.0491,0,0,0,0,0,0,0,-0.0552,-0.0559,-0.0661,-0.0661,-0.066,-0.0606,-0.061,-0.0575,-0.0586,-0.0626,-0.0625,-0.0634,-0.0553,-0.0542,-0.0535,-0.0481,-0.0497,-0.0493,-0.0491,-0.0489,-0.038,-0.038,0,0,0,0,0,0,-0.0576,-0.0558,-0.0662,-0.0662,-0.0612,-0.061,-0.0614,-0.0646,-0.0588,-0.0582,-0.0635,-0.0633,-0.0548,-0.0539,-0.0531,-0.0489,-0.0492,-0.0489,-0.0487,-0.0381,-0.038,-0.0379,0,0,0,0,0,0,-0.0573,-0.0586,-0.0663,-0.0613,-0.062,-0.0614,-0.0649,-0.0646,-0.0636,-0.0597,-0.0587,-0.063,-0.0548,-0.0536,-0.049,-0.0485,-0.0487,-0.0484,-0.0381,-0.038,-0.038,-0.0416,0,0,0,0,0,0,-0.0569,-0.0585,-0.0608,-0.0616,-0.0624,-0.0668,-0.065,-0.0646,-0.0646,-0.0643,-0.059,-0.058,-0.0547,-0.0496,-0.0486,-0.048,-0.0481,-0.0382,-0.0381,-0.038,-0.0416,-0.0417,-0.0418,0,0,0,0,0,-0.0564,-0.0602,-0.061,-0.0622,-0.0659,-0.0669,-0.0666,-0.0655,-0.0646,-0.0643,-0.0599,-0.0582,-0.0482,-0.0492,-0.0481,-0.0473,-0.0383,-0.0381,-0.038,-0.0415,-0.0417,-0.0418,0,0,0,0,0,0,-0.0551,-0.0603,-0.0611,-0.0663,-0.0668,-0.0665,-0.0667,-0.0659,-0.0624,-0.0614,-0.0571,-0.0558,-0.0514,-0.0488,-0.0501,-0.0438,-0.0431,-0.0427,-0.0461,-0.0462,-0.0463,-0.047,-0.0477,0,0,0,0,0,-0.0564,-0.0603,-0.0631,-0.0667,-0.0676,-0.067,-0.0671,-0.0664,-0.0642,-0.0627,-0.0594,-0.0548,-0.0501,-0.0478,-0.0436,-0.0403,-0.0385,-0.0391,-0.0392,-0.0393,-0.0391,-0.0355,-0.0353,-0.0375,-0.0375,-0.0375,0,0,-0.0567,-0.0601,-0.0622,-0.0666,-0.0667,-0.0668,-0.0668,-0.0673,-0.0665,-0.0619,-0.0591,-0.055,-0.0492,-0.045,-0.043,-0.0428,-0.038,-0.0391,-0.0393,-0.0389,-0.0353,-0.0351,-0.035,-0.0374,-0.0374,-0.0374,0,0,-0.0576,-0.0627,-0.0648,-0.0657,-0.0674,-0.067,-0.0675,-0.0675,-0.0669,-0.0646,-0.0599,-0.0551,-0.0504,-0.0449,-0.0417,-0.0397,-0.0384,-0.0393,-0.0405,-0.0371,-0.0369,-0.0367,-0.0358,-0.0355,-0.0396,-0.0396,-0.0396,0,-0.0573,-0.0613,-0.0649,-0.0662,-0.0665,-0.0673,-0.0669,-0.0668,-0.0648,-0.0637,-0.0642,-0.0543,-0.0498,-0.0423,-0.0419,-0.0398,-0.0392,-0.0409,-0.0374,-0.0371,-0.0369,-0.036,-0.0356,-0.0398,-0.0398,-0.0398,-0.0398,0,-0.0591,-0.0612,-0.0624,-0.0645,-0.065,-0.0654,-0.0662,-0.0659,-0.0659,-0.065,-0.0602,-0.0545,-0.0478,-0.0466,-0.0438,-0.0389,-0.0397,-0.038,-0.0377,-0.0369,-0.036,-0.0355,-0.04,-0.04,-0.0399,-0.0399,0,0,-0.0603,-0.063,-0.0631,-0.0625,-0.0641,-0.0643,-0.064,-0.0633,-0.0614,-0.0613,-0.0574,-0.0516,-0.0492,-0.0452,-0.0408,-0.039,-0.0372,-0.039,-0.0387,-0.0391,-0.0325,-0.0279,-0.027,-0.0361,-0.036,-0.0359,-0.0333,0,-0.0595,-0.0605,-0.0623,-0.0609,-0.0607,-0.0616,-0.0607,-0.0601,-0.0594,-0.0561,-0.0529,-0.0471,-0.0485,-0.0437,-0.0426,-0.0369,-0.036,-0.0382,-0.0322,-0.032,-0.0288,-0.0261,-0.0202,-0.0168,-0.0328,-0.0327,-0.0327,0,-0.0597,-0.0602,-0.0594,-0.0581,-0.0582,-0.0576,-0.0554,-0.0547,-0.0518,-0.0507,-0.0469,-0.0437,-0.0385,-0.0398,-0.0348,-0.0369,-0.0354,-0.0336,-0.0334,-0.0272,-0.0264,-0.0196,-0.0154,-0.0072,-0.0319,-0.032,-0.032,0,-0.0574,-0.0575,-0.0565,-0.0566,-0.056,-0.0555,-0.0549,-0.0529,-0.0507,-0.0459,-0.042,-0.0383,-0.0322,-0.0324,-0.0307,-0.0322,-0.0269,-0.0269,-0.0221,-0.0219,-0.0143,-0.0134,-0.0017,-0.0238,-0.0238,-0.0238,-0.0238,0,-0.0558,-0.0545,-0.0555,-0.0552,-0.0529,-0.0535,-0.0501,-0.0491,-0.0445,-0.0391,-0.0382,-0.0309,-0.0303,-0.0273,-0.029,-0.0244,-0.0252,-0.0214,-0.0197,-0.0155,-0.0148,-0.0053,-0.0037,-0.0237,-0.0237,-0.0238,-0.0238,0,-0.0522,-0.0535,-0.0519,-0.0518,-0.0519,-0.0503,-0.0477,-0.0441,-0.0411,-0.0331,-0.0307,-0.024,-0.0203,-0.0222,-0.019,-0.0182,-0.0096,-0.015,-0.0115,-0.0094,0.0044,0.0055,0.0176,0.0272,-0.0076,-0.0074,-0.0073,0,-0.0503,-0.0496,-0.0495,-0.0484,-0.0484,-0.0466,-0.0443,-0.0423,-0.0373,-0.028,-0.0221,-0.0162,-0.0094,-0.0055,-0.0058,-0.0073,-0.003,0.0006,0.0009,0.0076,0.0099,0.0102,0.0175,0.0081,0.0083,0.0085,0.0087,0,-0.0457,-0.0461,-0.0447,-0.043,-0.0415,-0.0386,-0.0352,-0.0306,-0.0258,-0.0188,-0.0073,-0.0015,0.003,0.0082,0.0067,0.0064,0.0114,0.005,0.0125,0.0245,0.0251,0.0344,0.0014,0.0105,0.0103,0.0101,0.0101,0.01,-0.0412,-0.0395,-0.0381,-0.036,-0.0335,-0.0284,-0.0238,-0.0183,-0.0096,0.0052,0.0071,0.0211,0.0261,0.0262,0.0232,0.0292,0.0252,0.0337,0.0344,0.0338,0.045,0.015,0.026,0.0259,0.0259,0.0258,0.0257,0,-0.0348,-0.0334,-0.031,-0.0273,-0.0217,-0.0231,-0.015,-0.0071,0.0052,0.0188,0.0303,0.0515,0.0526,0.0521,0.0529,0.058,0.0607,0.0615,0.0639,0.0702,0.0448,0.0477,0.0633,0.0633,0.0633,0.0633,0.0633,0.0633,-0.0307,-0.0272,-0.0266,-0.0168,-0.0134,-0.004,0.0016,0.0137,0.0258,0.0525,0.071,0.0836,0.0945,0.0784,0.0798,0.081,0.0929,0.089,0.095,0.0764,0.0738,0.0714,0.0747,0.0958,0.0958,0.124,0.1243,0.1245]}],[{"header":{"parameterUnit":"m.s-1","parameterCategory":2,"la1":30.2991,"la2":30.254,"lo1":-89.0895,"lo2":-89.0444,"dy":0.0017,"dx":0.0017,"nx":28,"ny":28,"refTime":"2023-08-11T03:00:00:Z","depth":"2","parameterNumber":2,"parameterNumberName":"U-component_of_CURRENTS"},"data":[0,0,0,0,0,0,0,0,0,0,0,0,0,0,0,0,0,0,0,0,0,0,0,0,0,0,0,0,0,0,0,0,0,0,0,0,0,0,0,0,0,0,0,0,0,0,0,0,0,0,0,0,0,0,0,0,0,0,-0.316,-0.3159,0,-0.3005,-0.3002,-0.3,-0.3063,-0.3067,-0.3072,-0.3075,-0.3046,-0.3041,-0.3037,0,0,0,0,0,0,0,0,0,0,0,0,0,-0.3228,-0.3227,-0.316,-0.3159,-0.3157,-0.3005,-0.3002,-0.3,-0.3063,-0.3068,-0.3073,-0.3077,-0.3047,-0.3042,-0.3036,0,0,0,0,0,0,0,0,0,0,0,0,0,-0.3144,-0.3227,-0.316,-0.3174,-0.3174,-0.3005,-0.3002,-0.2999,-0.3062,-0.3068,-0.3074,-0.308,-0.3049,-0.3043,-0.3036,-0.2869,0,0,-0.3014,-0.3011,0,0,0,0,0,0,0,0,-0.3149,-0.3141,-0.3173,-0.3173,-0.3173,-0.3064,-0.3015,-0.2963,-0.306,-0.3099,-0.3076,-0.3083,-0.3062,-0.3054,-0.3003,-0.2867,-0.2866,-0.3014,-0.301,-0.3007,-0.3005,0,0,0,0,0,0,0,-0.3155,-0.3146,-0.3094,-0.3171,-0.3171,-0.3091,-0.3088,-0.3003,-0.3046,-0.3096,-0.3101,-0.309,-0.3063,-0.3009,-0.3003,-0.2866,-0.3014,-0.3008,-0.3004,-0.3001,-0.2942,-0.2945,0,0,0,0,0,0,-0.3192,-0.3153,-0.3099,-0.3089,-0.3181,-0.3086,-0.3082,-0.3088,-0.3045,-0.3044,-0.3085,-0.3094,-0.3018,-0.3011,-0.3002,-0.3014,-0.3007,-0.3,-0.2996,-0.2939,-0.2943,-0.2945,0,0,0,0,0,0,-0.3194,-0.3189,-0.3105,-0.312,-0.3105,-0.3081,-0.3085,-0.3082,-0.31,-0.3036,-0.3038,-0.3117,-0.3022,-0.3012,-0.301,-0.3007,-0.2997,-0.2991,-0.2936,-0.294,-0.2944,-0.2902,0,0,0,0,0,0,-0.3197,-0.3191,-0.3216,-0.3124,-0.3106,-0.3058,-0.308,-0.3075,-0.3082,-0.3093,-0.3061,-0.3061,-0.3027,-0.3021,-0.3003,-0.2997,-0.2985,-0.2933,-0.2938,-0.2943,-0.29,-0.2904,-0.2907,0,0,0,0,0,-0.32,-0.3204,-0.3218,-0.3212,-0.314,-0.3058,-0.3041,-0.3038,-0.3078,-0.3079,-0.3085,-0.3066,-0.3043,-0.3015,-0.2994,-0.2986,-0.2931,-0.2937,-0.2942,-0.2898,-0.2903,-0.2907,0,0,0,0,0,0,-0.3227,-0.3208,-0.3222,-0.322,-0.3172,-0.3073,-0.3067,-0.306,-0.305,-0.3092,-0.3052,-0.3049,-0.3062,-0.3039,-0.301,-0.3002,-0.2999,-0.3001,-0.2974,-0.2977,-0.2981,-0.2951,-0.2979,0,0,0,0,0,-0.3246,-0.3263,-0.3211,-0.3207,-0.3197,-0.314,-0.3114,-0.3113,-0.3082,-0.3087,-0.3066,-0.3067,-0.3045,-0.3033,-0.3018,-0.296,-0.2878,-0.2968,-0.2971,-0.2973,-0.2946,-0.2845,-0.2833,-0.2965,-0.2965,-0.2965,0,0,-0.3241,-0.3242,-0.3244,-0.3216,-0.3182,-0.3137,-0.3142,-0.3121,-0.3096,-0.3078,-0.3071,-0.3074,-0.3046,-0.3019,-0.3022,-0.3005,-0.2889,-0.2981,-0.2982,-0.2952,-0.2849,-0.2835,-0.2822,-0.2969,-0.2968,-0.2967,0,0,-0.3225,-0.3259,-0.3264,-0.3234,-0.3214,-0.3168,-0.3182,-0.3126,-0.3138,-0.31,-0.3116,-0.3114,-0.3067,-0.3034,-0.301,-0.3018,-0.2926,-0.3058,-0.3007,-0.2911,-0.2896,-0.2882,-0.2711,-0.2683,-0.3038,-0.3038,-0.3038,0,-0.3229,-0.3232,-0.3242,-0.3228,-0.3206,-0.3195,-0.3166,-0.3133,-0.309,-0.3087,-0.3127,-0.307,-0.3056,-0.2986,-0.301,-0.3012,-0.2929,-0.2974,-0.2903,-0.2889,-0.2875,-0.2704,-0.2673,-0.3037,-0.3037,-0.3037,-0.3038,0,-0.3199,-0.3208,-0.3203,-0.3196,-0.317,-0.3145,-0.3112,-0.3112,-0.313,-0.309,-0.3079,-0.3042,-0.3002,-0.3016,-0.2998,-0.2918,-0.2877,-0.2924,-0.2865,-0.2857,-0.268,-0.2647,-0.3035,-0.3036,-0.3036,-0.3036,0,0,-0.316,-0.3187,-0.3177,-0.3178,-0.3165,-0.3119,-0.3112,-0.3068,-0.3029,-0.3037,-0.2965,-0.2959,-0.2953,-0.293,-0.2917,-0.2833,-0.2654,-0.2836,-0.2831,-0.2615,-0.2373,-0.2252,-0.2205,-0.2688,-0.2684,-0.2681,-0.2265,0,-0.3129,-0.3125,-0.3134,-0.3086,-0.3077,-0.3079,-0.3033,-0.3008,-0.2987,-0.2912,-0.2908,-0.2839,-0.2913,-0.2871,-0.281,-0.2722,-0.2578,-0.2757,-0.2458,-0.2446,-0.2299,-0.2168,-0.2234,-0.1863,-0.2233,-0.2228,-0.2224,0,-0.3077,-0.3091,-0.3066,-0.305,-0.3039,-0.2982,-0.2927,-0.2888,-0.2814,-0.2801,-0.2765,-0.2745,-0.2651,-0.2698,-0.2498,-0.2616,-0.2473,-0.2388,-0.2371,-0.2247,-0.2267,-0.1949,-0.1791,-0.2169,-0.2174,-0.2178,-0.2181,0,-0.3028,-0.3026,-0.3015,-0.3004,-0.2972,-0.2942,-0.2909,-0.2847,-0.2793,-0.2699,-0.2629,-0.2573,-0.2477,-0.2381,-0.2265,-0.2359,-0.1988,-0.2093,-0.1816,-0.1803,-0.1791,-0.1784,-0.1855,-0.1856,-0.1857,-0.1858,-0.1859,0,-0.2986,-0.294,-0.2979,-0.2946,-0.2876,-0.2883,-0.2772,-0.2739,-0.2645,-0.2536,-0.2545,-0.2419,-0.2395,-0.2223,-0.2151,-0.1864,-0.1888,-0.1732,-0.1676,-0.1777,-0.1775,-0.2027,-0.2052,-0.1842,-0.1846,-0.1849,-0.1851,0,-0.287,-0.2916,-0.2871,-0.2862,-0.2838,-0.2773,-0.2682,-0.2603,-0.2535,-0.238,-0.2343,-0.2239,-0.2029,-0.1936,-0.1699,-0.1649,-0.1434,-0.13,-0.1381,-0.1343,-0.1329,-0.1359,-0.0941,-0.0933,-0.0927,-0.0921,-0.0916,0,-0.2785,-0.2773,-0.2779,-0.2738,-0.2704,-0.2629,-0.2565,-0.2534,-0.2463,-0.2263,-0.2177,-0.1931,-0.177,-0.1375,-0.123,-0.0976,-0.11,-0.0861,-0.1063,-0.124,-0.1229,-0.1269,-0.1307,-0.1003,-0.1,-0.0997,-0.0994,0,-0.2602,-0.2628,-0.2613,-0.2564,-0.2505,-0.2453,-0.2377,-0.2324,-0.2265,-0.2149,-0.1946,-0.179,-0.1394,-0.1163,-0.0821,-0.0735,-0.0948,-0.0784,-0.0903,-0.1249,-0.1272,-0.1271,-0.131,-0.0968,-0.097,-0.0972,-0.0974,-0.0975,-0.2422,-0.2414,-0.243,-0.2361,-0.2304,-0.2257,-0.2178,-0.214,-0.2037,-0.1829,-0.1746,-0.1431,-0.1276,-0.0743,-0.0605,-0.0497,-0.0559,-0.0627,-0.0647,-0.0669,-0.0774,-0.0788,-0.0405,-0.0405,-0.0404,-0.0404,-0.0403,0,-0.2233,-0.2251,-0.2209,-0.2171,-0.2083,-0.2079,-0.2016,-0.1945,-0.1817,-0.1621,-0.1418,-0.1063,-0.0845,-0.0649,-0.0432,-0.0344,-0.0474,-0.0366,-0.0607,-0.0633,-0.0657,-0.0775,-0.0398,-0.0397,-0.0395,-0.0394,0,0,-0.2134,-0.2099,-0.2145,-0.1975,-0.1895,-0.1737,-0.1681,-0.1599,-0.1453,-0.1188,-0.0947,-0.0817,-0.0675,-0.0511,-0.0486,-0.0404,-0.0529,-0.0406,-0.0434,-0.0752,-0.0774,-0.0842,-0.1054,0,0,0,0,0]},{"header":{"parameterUnit":"m.s-1","parameterCategory":2,"la1":30.2991,"la2":30.254,"lo1":-89.0895,"lo2":-89.0444,"dy":0.0017,"dx":0.0017,"nx":28,"ny":28,"refTime":"2023-08-11T03:00:00:Z","depth":"2","parameterNumber":3,"parameterNumberName":"V-component_of_CURRENTS"},"data":[0,0,0,0,0,0,0,0,0,0,0,0,0,0,0,0,0,0,0,0,0,0,0,0,0,0,0,0,0,0,0,0,0,0,0,0,0,0,0,0,0,0,0,0,0,0,0,0,0,0,0,0,0,0,0,0,0,0,0.001,0.0011,0,0.0071,0.0072,0.0072,0.0204,0.0207,0.021,0.0213,0.0408,0.0411,0.0413,0,0,0,0,0,0,0,0,0,0,0,0,0,-0.014,-0.0138,0.001,0.0011,0.0013,0.0071,0.0072,0.0072,0.0203,0.0207,0.0211,0.0214,0.0408,0.041,0.0413,0,0,0,0,0,0,0,0,0,0,0,0,0,-0.0081,-0.0137,0.001,0.0089,0.0097,0.0071,0.0072,0.0072,0.0202,0.0207,0.0212,0.0216,0.0407,0.041,0.0413,0.0342,0,0,0.0424,0.0426,0,0,0,0,0,0,0,0,-0.0084,-0.0076,0.0076,0.0083,0.0092,0.0139,0.0091,0.0171,0.0201,0.0157,0.0213,0.0218,0.033,0.034,0.0333,0.0351,0.0359,0.0424,0.0426,0.0428,0.0429,0,0,0,0,0,0,0,-0.0088,-0.0079,0.003,0.0077,0.0087,0.0071,0.0085,0.0105,0.0216,0.0161,0.0172,0.0185,0.0336,0.0329,0.0339,0.0362,0.0424,0.0427,0.0429,0.0431,0.063,0.0633,0,0,0,0,0,0,-0.0083,-0.0082,0.0028,0.0032,0.0019,0.007,0.0086,0.0115,0.0213,0.0233,0.0181,0.0191,0.0321,0.0335,0.0346,0.0449,0.0428,0.0431,0.0433,0.0627,0.0631,0.0635,0,0,0,0,0,0,-0.0087,-0.0074,0.0026,-0.0021,-0.0008,0.007,0.01,0.0114,0.0162,0.0227,0.025,0.0222,0.0325,0.0342,0.041,0.0451,0.0433,0.0436,0.0623,0.0628,0.0633,0.0538,0,0,0,0,0,0,-0.0091,-0.0075,-0.0057,-0.002,-0.0005,0.0031,0.0096,0.0112,0.0162,0.0177,0.0268,0.0288,0.033,0.0405,0.0414,0.0456,0.0439,0.0619,0.0626,0.0631,0.0537,0.0538,0.054,0,0,0,0,0,-0.0097,-0.0085,-0.0056,-0.0043,0.002,0.003,0.0035,0.0102,0.016,0.0165,0.0245,0.0288,0.0453,0.0407,0.0418,0.0462,0.0616,0.0624,0.0631,0.0536,0.0538,0.054,0,0,0,0,0,0,-0.0141,-0.0069,-0.0036,-0.0001,0.0021,0.0056,0.007,0.0113,0.0171,0.0213,0.0282,0.0304,0.0402,0.0443,0.0392,0.0552,0.056,0.057,0.0485,0.0488,0.0489,0.0451,0.0441,0,0,0,0,0,-0.0147,-0.0116,-0.0063,-0.0042,-0.0021,0.0026,0.0043,0.0091,0.0146,0.0179,0.025,0.0347,0.0425,0.0464,0.054,0.0575,0.0578,0.0636,0.0637,0.0637,0.0623,0.0624,0.0621,0.0658,0.0658,0.0658,0,0,-0.0166,-0.0119,-0.0104,-0.0051,-0.0022,-0.0009,0.0049,0.0087,0.0115,0.0188,0.0265,0.035,0.0443,0.0515,0.0564,0.0556,0.0636,0.0647,0.0645,0.063,0.0631,0.0626,0.0621,0.0663,0.0662,0.0662,0,0,-0.0189,-0.0137,-0.0114,-0.0094,-0.0036,-0.0019,0.0002,0.0067,0.0123,0.0183,0.0273,0.0361,0.0475,0.0531,0.0578,0.0628,0.0653,0.0703,0.0654,0.0655,0.0649,0.0644,0.0642,0.0638,0.0689,0.0689,0.0689,0,-0.021,-0.0162,-0.0116,-0.0091,-0.0064,-0.0017,0.0008,0.0033,0.0117,0.0171,0.0221,0.0407,0.0476,0.0548,0.0582,0.0624,0.0632,0.0619,0.0645,0.0641,0.0637,0.0637,0.0633,0.0685,0.0686,0.0686,0.0686,0,-0.0213,-0.0175,-0.0164,-0.0111,-0.0091,-0.0068,-0.0014,0.0032,0.0115,0.0164,0.0291,0.0367,0.0476,0.0531,0.0564,0.0604,0.0621,0.0644,0.0609,0.0625,0.0628,0.0625,0.068,0.0681,0.0682,0.0683,0,0,-0.0257,-0.0176,-0.0173,-0.0135,-0.0083,-0.0065,-0.0022,0.0039,0.0088,0.0179,0.0249,0.0371,0.0426,0.0483,0.0545,0.0541,0.0518,0.0574,0.0576,0.0519,0.0517,0.0548,0.0548,0.0535,0.0534,0.0533,0.0526,0,-0.0266,-0.0218,-0.0176,-0.0146,-0.0108,-0.0052,-0.0025,0.0038,0.0112,0.0177,0.0267,0.035,0.0401,0.0454,0.0458,0.0523,0.0509,0.0518,0.0559,0.056,0.054,0.0546,0.0516,0.0509,0.0523,0.0523,0.0523,0,-0.0274,-0.0231,-0.0189,-0.0113,-0.0091,-0.0086,-0.0003,0.0032,0.0111,0.0179,0.0253,0.0321,0.0359,0.0389,0.0438,0.0444,0.0468,0.0494,0.0495,0.055,0.0586,0.0505,0.0504,0.0518,0.0519,0.0519,0.0519,0,-0.0304,-0.024,-0.0199,-0.0179,-0.0104,-0.0067,-0.0035,0.0043,0.0091,0.016,0.02,0.0267,0.0306,0.0338,0.0409,0.042,0.0445,0.0468,0.0509,0.0512,0.0508,0.0512,0.0466,0.0466,0.0466,0.0466,0.0466,0,-0.0315,-0.029,-0.0214,-0.0192,-0.0151,-0.0084,-0.0036,0.0011,0.0076,0.0119,0.0183,0.0214,0.0291,0.0332,0.0382,0.0442,0.0422,0.0492,0.0509,0.0482,0.0484,0.0517,0.0523,0.0466,0.0466,0.0466,0.0466,0,-0.0358,-0.0307,-0.0263,-0.0183,-0.0162,-0.0133,-0.0061,-0.0025,0.0032,0.0079,0.0094,0.0168,0.0218,0.0293,0.0351,0.0412,0.0462,0.0481,0.0448,0.0461,0.0531,0.0533,0.0521,0.0522,0.0523,0.0523,0.0524,0,-0.0381,-0.0355,-0.0279,-0.0258,-0.0227,-0.0176,-0.0141,-0.0061,-0.0024,0.0052,0.0066,0.0124,0.0156,0.0259,0.0383,0.0465,0.0459,0.0483,0.05,0.0517,0.0534,0.0535,0.0537,0.0457,0.0457,0.0457,0.0457,0,-0.0422,-0.0394,-0.0357,-0.0311,-0.0274,-0.0229,-0.0175,-0.0162,-0.0068,-0.0048,-0.0018,0.0003,0.0144,0.0253,0.0393,0.0424,0.0474,0.0488,0.0498,0.046,0.046,0.0477,0.0479,0.0457,0.0457,0.0457,0.0457,0.0457,-0.047,-0.0462,-0.0408,-0.0367,-0.0324,-0.0291,-0.0252,-0.0216,-0.019,-0.0141,-0.0118,-0.0051,0.0072,0.0282,0.0372,0.0497,0.0504,0.0509,0.0507,0.0506,0.0513,0.0515,0.0523,0.0523,0.0523,0.0524,0.0524,0,-0.0522,-0.049,-0.0464,-0.0415,-0.0392,-0.0326,-0.0268,-0.0252,-0.0238,-0.0181,-0.0167,-0.0088,0.0058,0.0226,0.0463,0.0553,0.0516,0.0515,0.0475,0.0475,0.0474,0.0478,0.048,0.048,0.048,0.048,0,0,-0.0542,-0.0536,-0.0513,-0.0484,-0.0434,-0.0341,-0.0293,-0.0315,-0.0259,-0.0264,-0.0165,-0.0117,0.0108,0.0231,0.0327,0.0462,0.0427,0.0425,0.0449,0.0388,0.0387,0.0456,0.046,0,0,0,0,0]}],[{"header":{"parameterUnit":"m.s-1","parameterCategory":2,"la1":30.2991,"la2":30.254,"lo1":-89.0895,"lo2":-89.0444,"dy":0.0017,"dx":0.0017,"nx":28,"ny":28,"refTime":"2023-08-11T03:00:00:Z","depth":"4","parameterNumber":2,"parameterNumberName":"U-component_of_CURRENTS"},"data":[0,0,0,0,0,0,0,0,0,0,0,0,0,0,0,0,0,0,0,0,0,0,0,0,0,0,0,0,0,0,0,0,0,0,0,0,0,0,0,0,0,0,0,0,0,0,0,0,0,0,0,0,0,0,0,0,0,0,-0.1172,-0.1173,0,-0.1256,-0.1257,-0.1258,-0.1301,-0.1301,-0.1301,-0.1301,-0.1403,-0.1406,-0.1409,0,0,0,0,0,0,0,0,0,0,0,0,0,-0.1067,-0.1069,-0.1172,-0.1173,-0.1174,-0.1256,-0.1257,-0.1259,-0.1301,-0.1301,-0.1301,-0.1301,-0.1402,-0.1406,-0.1409,0,0,0,0,0,0,0,0,0,0,0,0,0,-0.1129,-0.1069,-0.1172,-0.1204,-0.1207,-0.1256,-0.1257,-0.1259,-0.1301,-0.1301,-0.1301,-0.1301,-0.1401,-0.1405,-0.1409,-0.144,0,0,-0.1422,-0.1424,0,0,0,0,0,0,0,0,-0.1126,-0.1134,-0.1198,-0.1202,-0.1206,-0.1266,-0.1258,-0.132,-0.1301,-0.1267,-0.1301,-0.1301,-0.1358,-0.1366,-0.1384,-0.1444,-0.1449,-0.1423,-0.1425,-0.1427,-0.1428,0,0,0,0,0,0,0,-0.1121,-0.113,-0.1207,-0.1199,-0.1204,-0.122,-0.1229,-0.127,-0.1315,-0.127,-0.1273,-0.128,-0.136,-0.138,-0.1387,-0.145,-0.1423,-0.1427,-0.1429,-0.1431,-0.1579,-0.1581,0,0,0,0,0,0,-0.1107,-0.1126,-0.1204,-0.121,-0.1162,-0.1222,-0.1232,-0.1249,-0.1314,-0.1323,-0.128,-0.1282,-0.1373,-0.1382,-0.1391,-0.1468,-0.1427,-0.1431,-0.1434,-0.1578,-0.158,-0.1581,0,0,0,0,0,0,-0.1105,-0.1114,-0.1201,-0.1168,-0.118,-0.1223,-0.1242,-0.125,-0.1286,-0.1321,-0.133,-0.1309,-0.1373,-0.1385,-0.1441,-0.1471,-0.1433,-0.1437,-0.1576,-0.1579,-0.158,-0.1599,0,0,0,0,0,0,-0.1102,-0.1113,-0.113,-0.1167,-0.1181,-0.1238,-0.1243,-0.1252,-0.1288,-0.1292,-0.1348,-0.1357,-0.1374,-0.1434,-0.1445,-0.1476,-0.144,-0.1575,-0.1577,-0.158,-0.1597,-0.1602,-0.1606,0,0,0,0,0,-0.1098,-0.1122,-0.113,-0.114,-0.12,-0.1238,-0.1248,-0.1279,-0.129,-0.131,-0.1348,-0.1356,-0.1458,-0.1439,-0.1451,-0.1484,-0.1573,-0.1577,-0.158,-0.1595,-0.1601,-0.1606,0,0,0,0,0,0,-0.1081,-0.113,-0.1139,-0.1176,-0.1206,-0.1245,-0.1273,-0.129,-0.1337,-0.1349,-0.1376,-0.1388,-0.1446,-0.1465,-0.1443,-0.1535,-0.1517,-0.1522,-0.1524,-0.153,-0.1535,-0.1518,-0.1444,0,0,0,0,0,-0.1085,-0.1122,-0.1156,-0.1186,-0.1205,-0.1242,-0.1265,-0.1287,-0.1326,-0.1348,-0.1385,-0.1428,-0.1467,-0.1497,-0.1533,-0.1589,-0.1581,-0.1618,-0.1623,-0.1626,-0.1621,-0.1641,-0.1646,-0.1591,-0.1591,-0.1591,0,0,-0.1086,-0.1117,-0.1138,-0.1186,-0.1217,-0.1248,-0.1257,-0.1301,-0.133,-0.1352,-0.1414,-0.1446,-0.1484,-0.1541,-0.157,-0.1563,-0.1636,-0.163,-0.1633,-0.1626,-0.1645,-0.165,-0.1655,-0.1594,-0.1593,-0.1593,0,0,-0.1095,-0.1137,-0.1163,-0.1193,-0.124,-0.1268,-0.1282,-0.1333,-0.1362,-0.1418,-0.1439,-0.1487,-0.1556,-0.1585,-0.1608,-0.1662,-0.1656,-0.1681,-0.1698,-0.1718,-0.1722,-0.1725,-0.1708,-0.171,-0.1688,-0.1688,-0.1688,0,-0.1093,-0.1129,-0.1175,-0.1203,-0.1229,-0.1277,-0.1303,-0.1343,-0.1404,-0.1428,-0.144,-0.1537,-0.1574,-0.163,-0.1652,-0.1672,-0.1668,-0.1672,-0.1721,-0.1725,-0.1728,-0.171,-0.1712,-0.1689,-0.1689,-0.1689,-0.1689,0,-0.1107,-0.1145,-0.1167,-0.122,-0.1256,-0.1292,-0.1344,-0.139,-0.1432,-0.1463,-0.153,-0.158,-0.163,-0.1659,-0.1676,-0.1726,-0.1709,-0.1719,-0.1702,-0.1735,-0.1714,-0.1715,-0.1691,-0.1691,-0.169,-0.169,0,0,-0.1077,-0.1159,-0.1162,-0.1189,-0.1269,-0.1294,-0.136,-0.1416,-0.1447,-0.1516,-0.155,-0.1634,-0.1655,-0.1682,-0.1714,-0.1743,-0.1767,-0.1746,-0.1746,-0.1717,-0.1784,-0.1623,-0.1609,-0.1787,-0.1788,-0.1788,-0.1754,0,-0.107,-0.1105,-0.1159,-0.1207,-0.1239,-0.1311,-0.136,-0.1421,-0.1476,-0.1524,-0.1584,-0.1632,-0.1666,-0.1691,-0.1729,-0.1755,-0.1774,-0.1773,-0.1767,-0.1766,-0.1609,-0.1607,-0.1791,-0.1755,-0.1755,-0.1756,-0.1756,0,-0.1059,-0.1088,-0.1123,-0.1203,-0.1222,-0.1261,-0.1341,-0.1395,-0.1478,-0.1516,-0.1577,-0.1618,-0.1677,-0.1699,-0.1754,-0.1751,-0.177,-0.1788,-0.1787,-0.1628,-0.1607,-0.1721,-0.1758,-0.1758,-0.1758,-0.1758,-0.1758,0,-0.0994,-0.1065,-0.1089,-0.1115,-0.1211,-0.1244,-0.13,-0.1389,-0.143,-0.1509,-0.153,-0.1607,-0.1631,-0.1685,-0.1721,-0.1745,-0.1756,-0.179,-0.1658,-0.1646,-0.1795,-0.1792,-0.1823,-0.1823,-0.1823,-0.1823,-0.1823,0,-0.0963,-0.0988,-0.106,-0.1071,-0.1106,-0.12,-0.1249,-0.1309,-0.1395,-0.142,-0.1517,-0.1522,-0.1631,-0.1652,-0.1701,-0.1653,-0.1736,-0.1641,-0.1624,-0.1802,-0.1801,-0.1795,-0.1792,-0.1822,-0.1822,-0.1822,-0.1822,0,-0.09,-0.0947,-0.0982,-0.1058,-0.108,-0.1109,-0.1206,-0.1236,-0.1328,-0.136,-0.1381,-0.1456,-0.1455,-0.153,-0.1587,-0.1585,-0.1589,-0.1557,-0.1703,-0.1699,-0.1474,-0.1474,-0.1405,-0.1399,-0.1393,-0.1389,-0.1386,0,-0.0862,-0.0874,-0.0937,-0.0946,-0.0984,-0.1041,-0.1071,-0.1182,-0.121,-0.1294,-0.1283,-0.1308,-0.1341,-0.1272,-0.1376,-0.1409,-0.1422,-0.1422,-0.1487,-0.144,-0.1431,-0.1439,-0.1444,-0.1377,-0.1376,-0.1375,-0.1373,0,-0.08,-0.0832,-0.0859,-0.0864,-0.089,-0.0914,-0.0965,-0.0963,-0.1077,-0.117,-0.1134,-0.1145,-0.1118,-0.1152,-0.1164,-0.1212,-0.1426,-0.137,-0.1382,-0.1443,-0.1406,-0.1404,-0.1416,-0.1356,-0.1358,-0.136,-0.1361,0,-0.0753,-0.0749,-0.0777,-0.0782,-0.0795,-0.0763,-0.0811,-0.0827,-0.0867,-0.0974,-0.0946,-0.0991,-0.1061,-0.1045,-0.107,-0.1074,-0.1095,-0.112,-0.1147,-0.1167,-0.1113,-0.1032,-0.0832,0,0,0,0,0,-0.0699,-0.0685,-0.0684,-0.0666,-0.0669,-0.0675,-0.0725,-0.0783,-0.0878,-0.0811,-0.0883,-0.0857,-0.0863,-0.0897,-0.0859,-0.0985,-0.1107,-0.0942,-0.1151,-0.1257,-0.1278,-0.124,0,0,0,0,0,0,-0.0664,-0.0666,-0.0661,-0.0571,-0.0529,-0.0517,-0.0539,-0.0607,-0.0587,-0.0692,-0.0685,-0.08,-0.0806,-0.0847,-0.083,-0.0848,-0.0965,-0.0997,-0.0995,-0.1245,-0.1264,-0.1281,-0.1249,0,0,0,0,0]},{"header":{"parameterUnit":"m.s-1","parameterCategory":2,"la1":30.2991,"la2":30.254,"lo1":-89.0895,"lo2":-89.0444,"dy":0.0017,"dx":0.0017,"nx":28,"ny":28,"refTime":"2023-08-11T03:00:00:Z","depth":"4","parameterNumber":3,"parameterNumberName":"V-component_of_CURRENTS"},"data":[0,0,0,0,0,0,0,0,0,0,0,0,0,0,0,0,0,0,0,0,0,0,0,0,0,0,0,0,0,0,0,0,0,0,0,0,0,0,0,0,0,0,0,0,0,0,0,0,0,0,0,0,0,0,0,0,0,0,-0.0328,-0.0328,0,-0.0305,-0.0305,-0.0304,-0.0266,-0.0265,-0.0265,-0.0264,-0.0173,-0.0171,-0.0169,0,0,0,0,0,0,0,0,0,0,0,0,0,-0.0339,-0.0339,-0.0328,-0.0328,-0.0328,-0.0305,-0.0305,-0.0304,-0.0266,-0.0265,-0.0265,-0.0264,-0.0174,-0.0171,-0.0169,0,0,0,0,0,0,0,0,0,0,0,0,0,-0.0325,-0.0339,-0.0328,-0.0308,-0.0306,-0.0305,-0.0305,-0.0304,-0.0266,-0.0265,-0.0264,-0.0264,-0.0174,-0.0172,-0.0169,-0.0166,0,0,-0.016,-0.0159,0,0,0,0,0,0,0,0,-0.0326,-0.0324,-0.0311,-0.0309,-0.0307,-0.0289,-0.0275,-0.0255,-0.0266,-0.0279,-0.0264,-0.0263,-0.0207,-0.0202,-0.0197,-0.0162,-0.0158,-0.016,-0.0158,-0.0156,-0.0156,0,0,0,0,0,0,0,-0.0327,-0.0325,-0.0317,-0.0311,-0.0308,-0.03,-0.0297,-0.0271,-0.0245,-0.0278,-0.0275,-0.0276,-0.0205,-0.02,-0.0195,-0.0157,-0.016,-0.0157,-0.0155,-0.0154,-0.0115,-0.0116,0,0,0,0,0,0,-0.0335,-0.0326,-0.0318,-0.0316,-0.0317,-0.03,-0.0297,-0.0294,-0.0247,-0.024,-0.0277,-0.0275,-0.0206,-0.0198,-0.0191,-0.0191,-0.0157,-0.0154,-0.0152,-0.0114,-0.0115,-0.0116,0,0,0,0,0,0,-0.0335,-0.0334,-0.0319,-0.0323,-0.032,-0.0301,-0.0298,-0.0294,-0.0291,-0.0247,-0.0239,-0.0279,-0.0205,-0.0195,-0.0186,-0.0186,-0.0152,-0.015,-0.0113,-0.0115,-0.0115,-0.0186,0,0,0,0,0,0,-0.0335,-0.0334,-0.034,-0.0323,-0.032,-0.0328,-0.0299,-0.0294,-0.0294,-0.0291,-0.0246,-0.0237,-0.0203,-0.0191,-0.0183,-0.0182,-0.0148,-0.0113,-0.0114,-0.0115,-0.0182,-0.0189,-0.0195,0,0,0,0,0,-0.0336,-0.0345,-0.0341,-0.034,-0.0327,-0.0329,-0.0327,-0.0309,-0.0295,-0.0302,-0.0278,-0.0238,-0.0193,-0.019,-0.018,-0.0178,-0.0112,-0.0114,-0.0115,-0.018,-0.0188,-0.0194,0,0,0,0,0,0,-0.0348,-0.0342,-0.0336,-0.0342,-0.0342,-0.0324,-0.0327,-0.0317,-0.0305,-0.0298,-0.0255,-0.0245,-0.0235,-0.0202,-0.02,-0.0171,-0.0142,-0.0142,-0.0195,-0.0202,-0.0208,-0.0214,-0.0145,0,0,0,0,0,-0.0357,-0.0364,-0.0356,-0.0363,-0.0362,-0.0347,-0.0347,-0.0338,-0.0323,-0.0316,-0.0291,-0.0259,-0.0235,-0.0217,-0.0194,-0.0181,-0.0146,-0.0172,-0.0178,-0.0183,-0.0182,-0.0127,-0.0127,-0.0121,-0.0121,-0.0121,0,0,-0.0367,-0.0362,-0.0368,-0.0367,-0.036,-0.0376,-0.0344,-0.0347,-0.036,-0.0308,-0.0315,-0.0285,-0.0239,-0.0229,-0.0219,-0.0199,-0.0174,-0.0185,-0.019,-0.0186,-0.0128,-0.0129,-0.0129,-0.0122,-0.0122,-0.0122,0,0,-0.039,-0.0382,-0.0397,-0.0402,-0.0402,-0.0398,-0.0404,-0.0395,-0.0387,-0.0395,-0.0358,-0.0332,-0.0304,-0.0266,-0.0243,-0.0268,-0.0214,-0.0259,-0.0285,-0.0232,-0.0232,-0.0231,-0.0218,-0.0215,-0.0254,-0.0255,-0.0255,0,-0.0402,-0.0419,-0.0404,-0.0421,-0.0434,-0.0413,-0.0439,-0.0432,-0.0426,-0.0421,-0.0407,-0.0359,-0.0317,-0.0289,-0.0295,-0.0279,-0.0255,-0.0262,-0.0239,-0.0237,-0.0235,-0.0222,-0.0218,-0.0258,-0.0258,-0.0257,-0.0257,0,-0.0433,-0.0456,-0.0464,-0.0483,-0.0495,-0.0512,-0.0507,-0.0516,-0.0506,-0.0491,-0.0472,-0.0421,-0.0388,-0.0367,-0.0336,-0.0302,-0.0296,-0.0259,-0.022,-0.024,-0.0225,-0.022,-0.0263,-0.0262,-0.0261,-0.026,0,0,-0.0441,-0.048,-0.0487,-0.0515,-0.0531,-0.0545,-0.0568,-0.0577,-0.0587,-0.0561,-0.0563,-0.0504,-0.0467,-0.0438,-0.0389,-0.0334,-0.0304,-0.0294,-0.029,-0.0283,-0.0217,-0.0184,-0.0175,-0.0261,-0.026,-0.0259,-0.0224,0,-0.0474,-0.0526,-0.0537,-0.06,-0.0628,-0.063,-0.0656,-0.0658,-0.0646,-0.0644,-0.0572,-0.0554,-0.0495,-0.0479,-0.0416,-0.0333,-0.0288,-0.0318,-0.0198,-0.0195,-0.0162,-0.0166,-0.0255,-0.022,-0.0219,-0.0218,-0.0217,0,-0.0503,-0.0537,-0.0601,-0.0665,-0.0676,-0.0714,-0.075,-0.0766,-0.0747,-0.0733,-0.0692,-0.0641,-0.0573,-0.0514,-0.038,-0.0405,-0.0319,-0.0248,-0.0245,-0.018,-0.015,-0.0187,-0.0207,-0.0207,-0.0208,-0.0209,-0.021,0,-0.0517,-0.0587,-0.0642,-0.0663,-0.0723,-0.0759,-0.0789,-0.0794,-0.0802,-0.0786,-0.0782,-0.0701,-0.0662,-0.0539,-0.0393,-0.0388,-0.0242,-0.0216,-0.0111,-0.011,-0.012,-0.0121,-0.0114,-0.0114,-0.0114,-0.0114,-0.0114,0,-0.0546,-0.0594,-0.066,-0.0692,-0.0763,-0.0791,-0.0849,-0.0864,-0.0871,-0.0871,-0.0823,-0.0797,-0.066,-0.0558,-0.0423,-0.0255,-0.0263,-0.0118,-0.0088,-0.0157,-0.0162,-0.0119,-0.0119,-0.0113,-0.0113,-0.0114,-0.0114,0,-0.0554,-0.0595,-0.0668,-0.0746,-0.0774,-0.0825,-0.0895,-0.0923,-0.0931,-0.0932,-0.0928,-0.0869,-0.074,-0.0596,-0.0407,-0.0297,-0.0136,-0.0071,-0.0189,-0.0166,-0.0044,-0.0049,0.0028,0.003,0.0032,0.0033,0.0034,0,-0.0564,-0.0599,-0.07,-0.0746,-0.079,-0.0864,-0.0908,-0.0947,-0.0959,-0.0955,-0.0943,-0.0861,-0.0791,-0.0521,-0.0373,-0.0144,-0.009,-0.0036,-0.0007,-0.0045,-0.0024,-0.0031,-0.0038,0.0036,0.0037,0.0037,0.0037,0,-0.0579,-0.0616,-0.0672,-0.0757,-0.0826,-0.0898,-0.0956,-0.096,-0.098,-0.0999,-0.0924,-0.0809,-0.0674,-0.0496,-0.0326,-0.015,-0.0087,-0.0019,-0.0021,0.0006,-0.0035,-0.0017,-0.0025,0.0042,0.0042,0.0041,0.0041,0,-0.0585,-0.0623,-0.0688,-0.076,-0.0846,-0.0898,-0.0935,-0.0939,-0.095,-0.0925,-0.0901,-0.0775,-0.0722,-0.0497,-0.033,-0.0169,-0.012,-0.0061,-0.006,-0.0064,-0.0087,-0.0153,-0.0084,0,0,0,0,0,-0.0583,-0.0612,-0.0682,-0.0758,-0.0841,-0.0887,-0.0947,-0.0968,-0.0975,-0.0909,-0.0898,-0.0761,-0.0539,-0.0467,-0.0293,-0.0299,-0.0099,-0.0092,-0.0032,0.0071,0.0065,0.0059,0,0,0,0,0,0,-0.058,-0.0637,-0.0666,-0.0736,-0.0783,-0.0865,-0.0904,-0.0916,-0.0869,-0.0861,-0.0742,-0.0709,-0.0496,-0.0626,-0.0286,-0.0247,-0.0182,-0.0003,0.0001,0.0074,0.0069,0.0064,0.0056,0,0,0,0,0]}]]